GW7367 Weather Reports


time (UTC)temp
F
wind
direction
speed
knots
gust
knots
rain 1hr
in
rain 24hr
in
rain mn
in
humidity
%
barometer
mb
20260507124251 53 200 1.7 4.3 0.00 0.00 0.00 80 1022.9
20260507122748 53 211 1.7 6.1 0.00 0.00 0.00 79 1022.9
20260507121247 53 205 2.6 7.8 0.00 0.00 0.00 79 1022.9
20260507115743 53 199 2.6 6.1 0.00 0.00 0.00 78 1023.3
20260507114238 53 196 2.6 5.2 0.00 0.00 0.00 78 1023.3
20260507112735 54 181 1.7 5.2 0.00 0.00 0.00 78 1023.3
20260507111232 53 183 1.7 4.3 0.00 0.00 0.00 78 1023.3
20260507105728 53 151 1.7 4.3 0.00 0.00 0.00 78 1023.6
20260507104224 53 211 0.0 2.6 0.00 0.00 0.00 79 1023.6
20260507102724 53 295 0.0 0.9 0.00 0.00 0.00 79 1023.6
20260507101224 53 257 0.9 3.5 0.00 0.00 0.00 79 1023.6
20260507095724 53 186 1.7 3.5 0.00 0.00 0.00 79 1023.6
20260507094220 53 185 1.7 3.5 0.00 0.00 0.00 80 1023.6
20260507092718 53 206 1.7 3.5 0.00 0.00 0.00 81 1023.6
20260507091213 53 213 1.7 4.3 0.00 0.00 0.00 82 1023.6
20260507085713 53 213 1.7 4.3 0.00 0.00 0.00 82 1023.6
20260507084209 53 191 1.7 5.2 0.00 0.00 0.00 83 1023.6
20260507082705 53 193 2.6 7.0 0.00 0.00 0.00 82 1023.6
20260507081205 53 207 3.5 8.7 0.00 0.00 0.00 83 1023.3
20260507075705 53 202 2.6 6.1 0.00 0.00 0.00 84 1023.3
20260507074202 53 202 3.5 7.8 0.00 0.00 0.00 84 1023.6
20260507072658 53 205 3.5 7.8 0.00 0.00 0.00 85 1023.3
20260507071155 54 204 3.5 7.0 0.00 0.00 0.00 85 1023.3
20260507065651 54 188 3.5 7.8 0.00 0.00 0.00 84 1023.3
20260507064150 54 188 3.5 7.8 0.00 0.00 0.00 84 1023.3
20260507062646 55 175 3.5 7.0 0.00 0.00 0.00 83 1023.3
20260507061145 54 198 4.3 7.8 0.00 0.00 0.00 83 1023.3
20260507055641 55 195 2.6 5.2 0.00 0.00 0.00 82 1023.6
20260507054136 55 195 2.6 5.2 0.00 0.00 0.00 82 1023.6
20260507052636 55 200 2.6 5.2 0.00 0.00 0.00 81 1023.6
20260507051132 55 222 2.6 7.8 0.00 0.00 0.00 81 1023.6
20260507045628 55 196 2.6 6.1 0.00 0.00 0.00 80 1023.3
20260507044125 56 195 2.6 5.2 0.00 0.00 0.00 79 1023.3
20260507042620 56 224 2.6 6.1 0.00 0.00 0.00 78 1023.3
20260507035703 57 229 3.5 7.0 0.00 0.00 0.00 75 1023.3
20260507034159 57 229 3.5 7.0 0.00 0.00 0.00 75 1023.3
20260507032658 57 220 3.5 7.0 0.00 0.00 0.00 74 1022.9
20260507031153 57 203 2.6 6.1 0.00 0.00 0.00 72 1022.9
20260507025650 58 198 2.6 6.1 0.00 0.00 0.00 72 1022.9
20260507024148 58 215 2.6 7.0 0.00 0.00 0.00 72 1022.6
20260507022644 58 198 3.5 9.6 0.00 0.00 0.00 71 1022.6
20260507021143 58 191 2.6 7.0 0.00 0.00 0.00 71 1022.6
20260507015642 58 204 3.5 8.7 0.00 0.00 0.00 71 1022.6
20260507014138 58 214 3.5 9.6 0.00 0.00 0.00 71 1022.6
20260507012635 58 233 5.2 9.6 0.00 0.00 0.00 72 1022.6
20260507011131 58 233 7.0 13.0 0.00 0.00 0.00 72 1022.6
20260507005625 58 233 7.0 13.0 0.00 0.00 0.00 72 1022.6
20260507004121 58 217 5.2 11.3 0.00 0.00 0.00 72 1022.9
20260507002621 58 207 4.3 9.6 0.00 0.00 0.00 72 1022.9
20260507001117 57 218 6.1 14.8 0.00 0.00 0.00 72 1022.9
20260506235616 58 220 6.1 14.8 0.00 0.00 0.00 71 1022.9
20260506234116 57 223 7.0 13.0 0.00 0.00 0.00 71 1022.9
20260506232612 58 213 5.2 13.0 0.00 0.00 0.00 70 1022.9
20260506231109 57 219 5.2 11.3 0.00 0.00 0.00 69 1022.9
20260506225604 57 235 8.7 15.6 0.00 0.00 0.00 70 1022.9
20260506224100 57 242 8.7 16.5 0.00 0.00 0.00 69 1022.9
20260506222555 58 247 9.6 15.6 0.00 0.00 0.00 67 1022.9
20260506221053 58 236 7.8 16.5 0.00 0.00 0.00 66 1022.9
20260506215553 58 215 7.0 13.0 0.00 0.00 0.00 66 1022.9
20260506214049 57 227 7.8 13.0 0.00 0.00 0.00 68 1023.3
20260506212547 58 224 7.0 14.8 0.00 0.00 0.00 68 1023.3
20260506211047 58 211 5.2 13.0 0.00 0.00 0.00 68 1023.3
20260506205108 57 244 9.6 15.6 0.00 0.00 0.00 69 1022.9
20260506202103 57 212 5.2 11.3 0.00 0.00 0.00 70 1022.9